Regional Weather Roundup
Issued by NWS Grand Forks, ND

Home | Current Version | Previous Version | Text Only | Print | Product List | Glossary Off
Versions: 1 2 3 4 5 6 7 8 9 10 11 12 13 14 15 16 17 18 19 20 21 22 23 24 25 26 27 28 29 30 31 32 33 34 35 36 37 38 39 40 41 42 43 44 45 46 47 48 49 50

000
ASUS43 KFGF 311331
RWRFGF
PRAIRIE TO PINES  WEATHER ROUNDUP
NATIONAL WEATHER SERVICE EASTERN NORTH DAKOTA/GRAND FORKS ND
800 AM CDT FRI JUL 31 2015

 **SATELLITE DATA USED TO AUGMENT SKY COVER AT AUTOMATED STATIONS**
 *****  WEATHER ACROSS EASTERN NORTH DAKOTA  *****

CITY           SKY/WX    TMP DP  RH WIND       PRES   REMARKS
GRAND FORKS    MOSUNNY   64  54  69 W9        30.06R
GRAND FRKS AFB SUNNY     64  54  69 NW9       30.07R
GRAND FRKS NWS   N/A     59 N/A N/A W7          N/A
DEVILS LAKE    PTSUNNY   63  50  63 W13       30.11S
FARGO          SUNNY     62  54  74 W12       30.09R
WAHPETON ARPT  SUNNY     61  52  72 W7        30.12S
$$

 ***** WEATHER ACROSS CENTRAL AND WESTERN NORTH DAKOTA  *****

CITY           SKY/WX    TMP DP  RH WIND       PRES   REMARKS
BISMARCK       SUNNY     59  53  80 W3        30.18S
MINOT          SUNNY     63  52  67 NW6       30.14R
JAMESTOWN      SUNNY     63  53  70 W8        30.14R
MINOT AFB      SUNNY     60  55  84 W5        30.13S
GARRISON         N/A     61  54  77 CALM      30.15S
WILLISTON      SUNNY     61  53  75 SW3       30.16S
DICKINSON      SUNNY     63  51  65 SW5       30.18S
HETTINGER      SUNNY     52  48  86 CALM      30.23R
$$

 *****  OTHER AIRPORT OBSERVATIONS IN OUR AREA  *****

CITY           SKY/WX    TMP DP  RH WIND       PRES   REMARKS
WALHALLA       FAIR      64  54  68 MISG      30.05S
GRAFTON AIRPOR FAIR      64  54  68 W12       30.06S
VALLEY CITY AR FAIR      64  55  72 W9        30.14R
CANDO          FAIR      57  54  88 W9        30.12S
CAVALIER APRT  FAIR      64  54  68 W9        30.05R
GWINNER        FAIR      66  52  59 W8        30.14S
ROLLA          FAIR      63  52  67 NW10      30.13S
 ***** THE ABOVE OBSERVATIONS ARE NON NWS ARE NOT QUALITY
       CONTROLLED AND MAY MIS-REPORT RAIN FOR SNOW...
$$

  *****  WEATHER ACROSS NORTHERN MINNESOTA  *****

CITY           SKY/WX    TMP DP  RH WIND       PRES   REMARKS
FLAG ISLAND    SUNNY     63  55  77 W14       29.95S
WARROAD        SUNNY     61  55  82 W12       29.99S
ROSEAU         SUNNY     63  55  77 W10G17    30.00R
HALLOCK        SUNNY     63  55  77 NW8       30.03R
THF RVR FALLS  SUNNY     61  52  72 W9        30.05S
BAUDETTE       SUNNY     61  54  77 W8        29.97S
WASKISH        SUNNY     64  55  72 W10       30.01R
CROOKSTON      SUNNY     63  55  77 W10       30.07R
$$
  *****  WEATHER ACROSS CENTRAL AND WEST MINNESOTA  *****

CITY           SKY/WX    TMP DP  RH WIND       PRES   REMARKS
FOSSTON        SUNNY     63  54  72 CALM      30.07S
BEMIDJI        SUNNY     62  52  70 W12       30.04S
PARK RAPIDS    SUNNY     62  53  72 W10       30.07R
ELBOW LAKE     FAIR      61  56  84 NW6       30.12S
WADENA         SUNNY     64  54  68 W7        30.09R
DETROIT LAKES  SUNNY     64  52  63 W9        30.10R
MOORHEAD       SUNNY     64  55  72 SW7       30.10S
FERGUS FALLS   SUNNY     61  55  82 W5        30.12R
MORRIS MN      SUNNY     66  57  72 W6        30.12R
STAPLES        SUNNY     63  54  72 W7        30.09R
$$
  *****  WEATHER ELSEWHERE ACROSS MINNESOTA  *****

CITY           SKY/WX    TMP DP  RH WIND       PRES   REMARKS
DULUTH         SUNNY     64  53  67 W15       29.97R
INTRNTL FALLS  SUNNY     60  55  83 W8        29.95R
ELY            SUNNY     63  55  77 W9        29.94S
CLOQUET        SUNNY     64  52  63 W13       30.00R
WHEATON        SUNNY     64  55  72 W5        30.14S
BRAINERD       SUNNY     64  52  64 W8G20     30.06R
HIBBING        SUNNY     63  53  70 W12       29.98R
ALEXANDRIA     SUNNY     65  55  70 W9        30.13R
SAINT CLOUD    SUNNY     67  53  61 W13       30.08R
MINNEAPOLIS    SUNNY     70  54  56 W13       30.07R
$$

  *****  WEATHER ACROSS SOUTH DAKOTA  *****

CITY           SKY/WX    TMP DP  RH WIND       PRES   REMARKS
SIOUX FALLS    MOSUNNY   65  61  87 N3        30.17R
BROOKINGS      SUNNY     64  57  77 CALM      30.19S
WATERTOWN      SUNNY     65  58  78 CALM      30.17R
HURON          SUNNY     65  58  78 CALM      30.16S
SISSETON         N/A     64  57  78 CALM      30.12S
ABERDEEN       SUNNY     62  55  77 CALM      30.16R
MITCHELL       SUNNY     65  60  84 CALM      30.17R
PIERRE         SUNNY     62  55  77 E5        30.17R
MOBRIDGE       SUNNY     63  60  90 CALM      30.17R
RAPID CITY     SUNNY     65  51  60 CALM      30.22S
$$

  *****  SOME WEATHER IN NEARBY STATES *****

CITY           SKY/WX    TMP DP  RH WIND       PRES   REMARKS
GLASGOW MT     SUNNY     62  49  62 E8        30.17R
GREAT FALLS MT CLEAR     55  43  63 W7        30.20R
CHEYENNE WY    SUNNY     59  51  75 W8        30.39R
SCOTTSBLUFF NE SUNNY     62  59  90 E3        30.27R
OMAHA NE       MOSUNNY   75  64  68 CALM      30.14R
DES MOINES IA  MOSUNNY   74  64  71 N5        30.14R
DAVENPORT IA   SUNNY     71  66  84 W8        30.09R
CHICAGO IL     PTSUNNY   73  60  63 W13       30.03R
EAU CLAIRE WI  SUNNY     68  55  63 W12       30.02R
LA CROSSE WI   SUNNY     72  58  61 W8        30.03S
$$

  *****  SOME NATIONAL WEATHER *****

CITY           SKY/WX    TMP DP  RH WIND       PRES   REMARKS
LA GUARDIA NY  MOSUNNY   78  60  53 NW6       29.87S
RALEIGH NC     MOSUNNY   78  63  59 VRB6      29.99R
ATLANTA GA     MOSUNNY   79  68  69 N6        30.00R
NEW ORLEANS LA PTSUNNY   83  71  67 NE10      29.96R
OKLAHOMA CITY  PTSUNNY   77  74  90 E7        30.15S
ALBUQUERQUE NM CLOUDY    68  60  75 N3        30.35S
SALT LAKE CITY PTCLDY    64  33  31 CALM      30.23R
LOS ANGELES CA MOCLDY    68  65  90 W3        30.02R
BOISE ID       CLEAR     66  36  32 E7        30.15R
SEATTLE WA     PTCLDY    64  49  57 N6        30.08R
$$

*** WEATHER ACROSS MANITOBA...SASKATCHEWAN AND ONTARIO ***
                ***ONTARIO***

CITY           SKY/WX    TMP DP  RH WIND       PRES   REMARKS
GERALDTON      PTSUNNY   61  59  94 W7        29.73S
THUNDER BAY    MOSUNNY   63  57  82 W10       29.83R
SIOUX LOOKOUT  PTSUNNY   61  55  82 NW8       29.87
TORONTO        MOSUNNY   72  54  53 S5        29.87F
BIG TROUT LK   CLOUDY    57  52  82 NW14G26   29.64R
PICKLE LAKE    PTSUNNY   59  54  82 W12       29.77R
DRYDEN         CLOUDY    59  55  88 W8        29.90R
KENORA         MOSUNNY   61  57  88 W8        29.94R
$$
                *** MANITOBA***

CITY           SKY/WX    TMP DP  RH WIND       PRES   REMARKS
BRANDON        SUNNY     55  54  94 W8        30.09R
DAUPHIN        SUNNY     59  54  82 W12       30.04R
ISLAND LAKE    MOSUNNY   63  54  72 NW8       29.80R
PILOT MOUND      N/A     59  52  77 W7          N/A
THE PAS        MOSUNNY   59  55  88 W10       29.96S
THOMPSON       NOT AVBL
WINNIPEG       MOSUNNY   59  55  88 W10       30.01R
LYNN LAKE      CLOUDY    59  55  88 W7        29.90R
CHURCHILL      PTSUNNY   55  50  82 NW18G24   29.67S
GILLAM         MOSUNNY   59  54  82 NW14      29.74R
$$
                ***SASKATCHEWAN***

CITY           SKY/WX    TMP DP  RH WIND       PRES   REMARKS
ESTEVAN        SUNNY     57  52  82 VRB2      30.15F
KINDERSLEY     MOSUNNY   54  50  87 S2        30.18R
LLOYDMINSTER   PTSUNNY   57  52  82 W8        30.15F
PRINCE ALBERT  MOSUNNY   54  50  87 W5        30.09S
REGINA         MOSUNNY   57  54  88 W3        30.18R
YORKTON        SUNNY     59  52  77 W9        30.10R
N. BATTLEFORD  MOSUNNY   57  48  72 CALM      30.18R
LA RONGE       MOSUNNY   57  52  82 W8        30.05R
SASKATOON      PTSUNNY   54  50  87 W6        30.17R
SWIFT CURRENT  SUNNY     55  50  82 SE6       30.19S
$$
NOTE: THESE ARE AUTOMATED STATIONS WITH LIMITED QUALITY CONTROL
      "FAIR" INDICATES FEW OR NO CLOUDS BELOW 12,000 FEET WITH NO
      SIGNIFICANT WEATHER AND/OR OBSTRUCTIONS TO VISIBILITY.
      SKY/WX - SKY CONDITION AND SIGNIFICANT WEATHER.
      TMP - AIR TEMPERATURE.    DP   - DEWPOINT TEMPERATURE.
      RH  - RELATIVE HUMIDITY.  PRES - PRESSURE.
      HX  - HEAT INDEX.         WCI  - WIND CHILL INDEX.
$



USA.gov is the U.S. government's official web portal to all federal, state and local government web resources and services.